Location: Staunton
(38.1490°N, 79.0720°W)
Time: 04:31:29
(UTC-04:00)

ISS - Pass Details

Date: 22 May 2019
Orbit: 407 x 410 km, 51.6° (Epoch: 21 May)

Event Time Altitude Azimuth Distance (km) Brightness Sun altitude
Rises 01:21:34 0° 319° (NW) 2,335 0.7 -31.5°
Reaches altitude 10° 01:24:39 10° 351° (N) 1,473 -0.2 -31.5°
Enters shadow 01:24:57 11° 356° (N) 1,423 -0.2 -31.5°
